ProjectID,Date,Electric Generation,Electric Utility Import,Facility Electric Load
,YYYY-MM-DD,kW,kW,kW
98,2012-09-01,0.0,,0.0
98,2012-09-02,0.0,,0.0
98,2012-09-03,0.0,,0.0
98,2012-09-04,0.0,,0.0
98,2012-09-05,0.0,,0.0
98,2012-09-06,0.0,,0.0
98,2012-09-07,0.0,,0.0
98,2012-09-08,0.0,,0.0
98,2012-09-09,0.0,,0.0
98,2012-09-10,0.0,,0.0
98,2012-09-11,0.0,,0.0
98,2012-09-12,0.0,,0.0
98,2012-09-13,0.0,,0.0
98,2012-09-14,0.0,,0.0
98,2012-09-15,0.0,,0.0
98,2012-09-16,0.0,,0.0
98,2012-09-17,0.0,,0.0
98,2012-09-18,0.0,,0.0
98,2012-09-19,13.490041666666668,,13.490041666666668
98,2012-09-20,20.493333333333332,,20.493333333333332
98,2012-09-21,36.02333333333333,,36.02333333333333
98,2012-09-22,40.81670833333333,,40.81670833333333
98,2012-09-23,60.383250000000004,,60.383250000000004
98,2012-09-24,59.71,,59.71
98,2012-09-25,63.916666666666664,,63.916666666666664
98,2012-09-26,16.87,,16.87
98,2012-09-27,28.189999999999998,,28.189999999999998
98,2012-09-28,10.816666666666668,,10.816666666666668
98,2012-09-29,16.100041666666666,,16.100041666666666
98,2012-09-30,35.14,,35.14
98,2012-10-01,53.88329166666667,,53.88329166666667
98,2012-10-02,10.389958333333334,,10.389958333333334
98,2012-10-03,14.51,,14.51
98,2012-10-04,16.68325,,16.68325
98,2012-10-05,50.01,,50.01
98,2012-10-06,32.916666666666664,,32.916666666666664
98,2012-10-07,12.733333333333334,,12.733333333333334
98,2012-10-08,24.426708333333334,,24.426708333333334
98,2012-10-09,9.203375,,9.203375
98,2012-10-10,36.263333333333335,,36.263333333333335
98,2012-10-11,55.70325,,55.70325
98,2012-10-12,23.966624999999997,,23.966624999999997
98,2012-10-13,54.496625,,54.496625
98,2012-10-14,35.95004166666667,,35.95004166666667
98,2012-10-15,19.733416666666667,,19.733416666666667
98,2012-10-16,52.233291666666666,,52.233291666666666
98,2012-10-17,39.54329166666667,,39.54329166666667
98,2012-10-18,42.00991666666667,,42.00991666666667
98,2012-10-19,7.9500416666666665,,7.9500416666666665
98,2012-10-20,46.033375,,46.033375
98,2012-10-21,46.00341666666667,,46.00341666666667
98,2012-10-22,47.893375,,47.893375
98,2012-10-23,19.996583333333334,,19.996583333333334
98,2012-10-24,13.393416666666667,,13.393416666666667
98,2012-10-25,12.350083333333332,,12.350083333333332
98,2012-10-26,15.700000000000001,,15.700000000000001
98,2012-10-27,18.806625,,18.806625
98,2012-10-28,6.529916666666666,,6.529916666666666
98,2012-10-29,0.4565416666666667,,0.4565416666666667
98,2012-10-30,0.0,,0.0
98,2012-10-31,14.253416666666666,,14.253416666666666
98,2012-11-01,24.310041666666667,,24.310041666666667
98,2012-11-02,19.743333333333332,,19.743333333333332
98,2012-11-03,31.296583333333334,,31.296583333333334
98,2012-11-04,35.446625000000004,,35.446625000000004
98,2012-11-05,36.260083333333334,,36.260083333333334
98,2012-11-06,37.333333333333336,,37.333333333333336
98,2012-11-07,3.220041666666667,,3.220041666666667
98,2012-11-08,7.630041666666667,,7.630041666666667
98,2012-11-09,38.74008333333333,,38.74008333333333
98,2012-11-10,16.220041666666667,,16.220041666666667
98,2012-11-11,34.03333333333333,,34.03333333333333
98,2012-11-12,30.89,,30.89
98,2012-11-13,6.699833333333333,,6.699833333333333
98,2012-11-14,32.839999999999996,,32.839999999999996
98,2012-11-15,28.639958333333336,,28.639958333333336
98,2012-11-16,21.42675,,21.42675
98,2012-11-17,34.82666666666667,,34.82666666666667
98,2012-11-18,26.779958333333337,,26.779958333333337
98,2012-11-19,18.963375,,18.963375
98,2012-11-20,29.766583333333333,,29.766583333333333
98,2012-11-21,33.553374999999996,,33.553374999999996
98,2012-11-22,31.446791666666666,,31.446791666666666
98,2012-11-23,30.709958333333333,,30.709958333333333
98,2012-11-24,21.73,,21.73
98,2012-11-25,19.009958333333334,,19.009958333333334
98,2012-11-26,30.313333333333333,,30.313333333333333
98,2012-11-27,2.58675,,2.58675
98,2012-11-28,26.766750000000002,,26.766750000000002
98,2012-11-29,27.076666666666668,,27.076666666666668
98,2012-11-30,17.063291666666668,,17.063291666666668
98,2012-12-01,6.833208333333334,,6.833208333333334
98,2012-12-02,14.68,,14.68
98,2012-12-03,26.166666666666668,,26.166666666666668
98,2012-12-04,17.700041666666667,,17.700041666666667
98,2012-12-05,21.38670833333333,,21.38670833333333
98,2012-12-06,29.406583333333334,,29.406583333333334
98,2012-12-07,5.603375,,5.603375
98,2012-12-08,6.736666666666667,,6.736666666666667
98,2012-12-09,5.606625,,5.606625
98,2012-12-10,3.9302083333333333,,3.9302083333333333
98,2012-12-11,18.116666666666667,,18.116666666666667
98,2012-12-12,22.376625,,22.376625
98,2012-12-13,27.790041666666667,,27.790041666666667
98,2012-12-14,28.286625,,28.286625
98,2012-12-15,26.966791666666666,,26.966791666666666
98,2012-12-16,1.3266666666666667,,1.3266666666666667
98,2012-12-17,3.1066249999999997,,3.1066249999999997
98,2012-12-18,13.506833333333333,,13.506833333333333
98,2012-12-19,27.25,,27.25
98,2012-12-20,16.229958333333332,,16.229958333333332
98,2012-12-21,10.073375,,10.073375
98,2012-12-22,10.470041666666667,,10.470041666666667
98,2012-12-23,23.413416666666667,,23.413416666666667
98,2012-12-24,18.926583333333333,,18.926583333333333
98,2012-12-25,23.75,,23.75
98,2012-12-26,5.043291666666667,,5.043291666666667
98,2012-12-27,9.139958333333334,,9.139958333333334
98,2012-12-28,27.67675,,27.67675
98,2012-12-29,2.43,,2.43
98,2012-12-30,22.689791666666665,,22.689791666666665
98,2012-12-31,23.279916666666665,,23.279916666666665
98,2013-01-01,4.986666666666667,,4.986666666666667
98,2013-01-02,24.106791666666666,,24.106791666666666
98,2013-01-03,21.18325,,21.18325
98,2013-01-04,15.949875,,15.949875
98,2013-01-05,25.236625,,25.236625
98,2013-01-06,26.88670833333333,,26.88670833333333
98,2013-01-07,30.540041666666667,,30.540041666666667
98,2013-01-08,28.546875,,28.546875
98,2013-01-09,13.339833333333333,,13.339833333333333
98,2013-01-10,28.160124999999997,,28.160124999999997
98,2013-01-11,7.426749999999999,,7.426749999999999
98,2013-01-12,7.616833333333333,,7.616833333333333
98,2013-01-13,7.9632499999999995,,7.9632499999999995
98,2013-01-14,9.233416666666667,,9.233416666666667
98,2013-01-15,7.909833333333334,,7.909833333333334
98,2013-01-16,1.553375,,1.553375
98,2013-01-17,19.590166666666665,,19.590166666666665
98,2013-01-18,34.769875,,34.769875
98,2013-01-19,34.09016666666667,,34.09016666666667
98,2013-01-20,31.773416666666666,,31.773416666666666
98,2013-01-21,13.849958333333333,,13.849958333333333
98,2013-01-22,33.106791666666666,,33.106791666666666
98,2013-01-23,25.366541666666667,,25.366541666666667
98,2013-01-24,39.17675,,39.17675
98,2013-01-25,20.84991666666667,,20.84991666666667
98,2013-01-26,3.723333333333333,,3.723333333333333
98,2013-01-27,32.126625,,32.126625
98,2013-01-28,4.799791666666667,,4.799791666666667
98,2013-01-29,25.7565,,25.7565
98,2013-01-30,19.549833333333336,,19.549833333333336
98,2013-01-31,36.33658333333333,,36.33658333333333
98,2013-02-01,25.270208333333333,,25.270208333333333
98,2013-02-02,37.376625,,37.376625
98,2013-02-03,7.309875000000001,,7.309875000000001
98,2013-02-04,37.99641666666667,,37.99641666666667
98,2013-02-05,2.186875,,2.186875
98,2013-02-06,29.029958333333337,,29.029958333333337
98,2013-02-07,22.96320833333333,,22.96320833333333
98,2013-02-08,0.03975,,0.03975
98,2013-02-09,0.0,,0.0
98,2013-02-10,0.0,,0.0
98,2013-02-11,5.296541666666667,,5.296541666666667
98,2013-02-12,32.07,,32.07
98,2013-02-13,37.64,,37.64
98,2013-02-14,46.54654166666666,,46.54654166666666
98,2013-02-15,46.27345833333334,,46.27345833333334
98,2013-02-16,25.38670833333333,,25.38670833333333
98,2013-02-17,46.93683333333333,,46.93683333333333
98,2013-02-18,53.449875,,53.449875
98,2013-02-19,19.716458333333332,,19.716458333333332
98,2013-02-20,34.11329166666667,,34.11329166666667
98,2013-02-21,49.689750000000004,,49.689750000000004
98,2013-02-22,29.516583333333333,,29.516583333333333
98,2013-02-23,5.849916666666666,,5.849916666666666
98,2013-02-24,25.603166666666667,,25.603166666666667
98,2013-02-25,39.20020833333333,,39.20020833333333
98,2013-02-26,24.35320833333333,,24.35320833333333
98,2013-02-27,8.696625,,8.696625
98,2013-02-28,15.196625,,15.196625
98,2013-03-01,13.723125000000001,,13.723125000000001
98,2013-03-02,23.62625,,23.62625
98,2013-03-03,46.666666666666664,,46.666666666666664
98,2013-03-04,61.10041666666667,,61.10041666666667
98,2013-03-05,60.13958333333333,,60.13958333333333
98,2013-03-06,10.356250000000001,,10.356250000000001
98,2013-03-07,19.980416666666667,,19.980416666666667
98,2013-03-08,9.40625,,9.40625
98,2013-03-09,64.78,,64.78
98,2013-03-10,57.029583333333335,,57.029583333333335
98,2013-03-11,33.69291666666667,,33.69291666666667
98,2013-03-12,7.156666666666666,,7.156666666666666
98,2013-03-13,29.86,,29.86
98,2013-03-14,51.156666666666666,,51.156666666666666
98,2013-03-15,33.84375,,33.84375
98,2013-03-16,19.82,,19.82
98,2013-03-17,45.19958333333333,,45.19958333333333
98,2013-03-18,28.52333333333333,,28.52333333333333
98,2013-03-19,19.933333333333334,,19.933333333333334
98,2013-03-20,64.13,,64.13
98,2013-03-21,30.650000000000002,,30.650000000000002
98,2013-03-22,34.02,,34.02
98,2013-03-23,38.92333333333333,,38.92333333333333
98,2013-03-24,53.156666666666666,,53.156666666666666
98,2013-03-25,12.257083333333334,,12.257083333333334
98,2013-03-26,41.11666666666667,,41.11666666666667
98,2013-03-27,56.083333333333336,,56.083333333333336
98,2013-03-28,43.53666666666667,,43.53666666666667
98,2013-03-29,49.48333333333333,,49.48333333333333
98,2013-03-30,62.26,,62.26
98,2013-03-31,31.853333333333335,,31.853333333333335
98,2013-04-01,48.99666666666667,,48.99666666666667
98,2013-04-02,62.68333333333334,,62.68333333333334
98,2013-04-03,73.18333333333334,,73.18333333333334
98,2013-04-04,59.49333333333333,,59.49333333333333
98,2013-04-05,58.742916666666666,,58.742916666666666
98,2013-04-06,74.45666666666666,,74.45666666666666
98,2013-04-07,60.67625,,60.67625
98,2013-04-08,67.46375,,67.46375
98,2013-04-09,66.16,,66.16
98,2013-04-10,60.446666666666665,,60.446666666666665
98,2013-04-11,24.243333333333336,,24.243333333333336
98,2013-04-12,9.82375,,9.82375
98,2013-04-13,42.489583333333336,,42.489583333333336
98,2013-04-14,70.90625,,70.90625
98,2013-04-15,62.75,,62.75
98,2013-04-16,59.25666666666667,,59.25666666666667
98,2013-04-17,64.08,,64.08
98,2013-04-18,28.95625,,28.95625
98,2013-04-19,56.46333333333333,,56.46333333333333
98,2013-04-20,58.187083333333334,,58.187083333333334
98,2013-04-21,64.71958333333333,,64.71958333333333
98,2013-04-22,29.172916666666666,,29.172916666666666
98,2013-04-23,20.129166666666666,,20.129166666666666
98,2013-04-24,49.89333333333334,,49.89333333333334
98,2013-04-25,80.60666666666667,,80.60666666666667
98,2013-04-26,58.09708333333333,,58.09708333333333
98,2013-04-27,83.79666666666667,,83.79666666666667
98,2013-04-28,75.69333333333334,,75.69333333333334
98,2013-04-29,19.65041666666667,,19.65041666666667
98,2013-04-30,74.02041666666666,,74.02041666666666
98,2013-05-01,84.55,,84.55
98,2013-05-02,84.61333333333333,,84.61333333333333
98,2013-05-03,88.13666666666667,,88.13666666666667
98,2013-05-04,88.07666666666667,,88.07666666666667
98,2013-05-05,89.18291666666666,,89.18291666666666
98,2013-05-06,66.7,,66.7
98,2013-05-07,68.84,,68.84
98,2013-05-08,26.36,,26.36
98,2013-05-09,36.083333333333336,,36.083333333333336
98,2013-05-10,76.47666666666667,,76.47666666666667
98,2013-05-11,24.62291666666667,,24.62291666666667
98,2013-05-12,80.91333333333334,,80.91333333333334
98,2013-05-13,74.03,,74.03
98,2013-05-14,85.32041666666667,,85.32041666666667
98,2013-05-15,56.63666666666666,,56.63666666666666
98,2013-05-16,63.90958333333333,,63.90958333333333
98,2013-05-17,78.97625000000001,,78.97625000000001
98,2013-05-18,26.22666666666667,,26.22666666666667
98,2013-05-19,9.567083333333334,,9.567083333333334
98,2013-05-20,56.550000000000004,,56.550000000000004
98,2013-05-21,82.72375,,82.72375
98,2013-05-22,40.62625,,40.62625
98,2013-05-23,48.6,,48.6
98,2013-05-24,16.36,,16.36
98,2013-05-25,41.35,,41.35
98,2013-05-26,84.43666666666667,,84.43666666666667
98,2013-05-27,92.19333333333333,,92.19333333333333
98,2013-05-28,31.560000000000002,,31.560000000000002
98,2013-05-29,65.32333333333334,,65.32333333333334
98,2013-05-30,82.06375,,82.06375
98,2013-05-31,76.12375,,76.12375
98,2013-06-01,85.13291666666667,,85.13291666666667
98,2013-06-02,81.37375,,81.37375
98,2013-06-03,38.77333333333333,,38.77333333333333
98,2013-06-04,94.70333333333333,,94.70333333333333
98,2013-06-05,89.17375,,89.17375
98,2013-06-06,53.213750000000005,,53.213750000000005
98,2013-06-07,8.696666666666667,,8.696666666666667
98,2013-06-08,57.393750000000004,,57.393750000000004
98,2013-06-09,86.92666666666666,,86.92666666666666
98,2013-06-10,19.186666666666667,,19.186666666666667
98,2013-06-11,66.31625,,66.31625
98,2013-06-12,88.88666666666667,,88.88666666666667
98,2013-06-13,20.422916666666666,,20.422916666666666
98,2013-06-14,60.013749999999995,,60.013749999999995
98,2013-06-15,84.23666666666666,,84.23666666666666
98,2013-06-16,57.77,,57.77
98,2013-06-17,66.75666666666667,,66.75666666666667
98,2013-06-18,52.193333333333335,,52.193333333333335
98,2013-06-19,89.69333333333333,,89.69333333333333
98,2013-06-20,88.89,,88.89
98,2013-06-21,87.98083333333334,,87.98083333333334
98,2013-06-22,85.07583333333334,,85.07583333333334
98,2013-06-23,83.72,,83.72
98,2013-06-24,62.89958333333333,,62.89958333333333
98,2013-06-25,74.18333333333334,,74.18333333333334
98,2013-06-26,59.916666666666664,,59.916666666666664
98,2013-06-27,66.18333333333334,,66.18333333333334
98,2013-06-28,52.330000000000005,,52.330000000000005
98,2013-06-29,72.01375,,72.01375
98,2013-06-30,54.279583333333335,,54.279583333333335
98,2013-07-01,22.542916666666667,,22.542916666666667
98,2013-07-02,48.06708333333333,,48.06708333333333
98,2013-07-03,57.70333333333334,,57.70333333333334
98,2013-07-04,54.73333333333333,,54.73333333333333
98,2013-07-05,81.18625,,81.18625
98,2013-07-06,79.83333333333333,,79.83333333333333
98,2013-07-07,81.59625,,81.59625
98,2013-07-08,83.51041666666667,,83.51041666666667
98,2013-07-09,62.9675,,62.9675
98,2013-07-10,56.6025,,56.6025
98,2013-07-11,37.172916666666666,,37.172916666666666
98,2013-07-12,33.53,,33.53
98,2013-07-13,39.685833333333335,,39.685833333333335
98,2013-07-14,73.42041666666667,,73.42041666666667
98,2013-07-15,71.30375,,71.30375
98,2013-07-16,84.79041666666667,,84.79041666666667
98,2013-07-17,71.94916666666667,,71.94916666666667
98,2013-07-18,75.0025,,75.0025
98,2013-07-19,74.78375,,74.78375
98,2013-07-20,71.24333333333333,,71.24333333333333
98,2013-07-21,67.08708333333333,,67.08708333333333
98,2013-07-22,35.09625,,35.09625
98,2013-07-23,63.90625,,63.90625
98,2013-07-24,66.03375,,66.03375
98,2013-07-25,16.587083333333332,,16.587083333333332
98,2013-07-26,59.32916666666667,,59.32916666666667
98,2013-07-27,73.11583333333333,,73.11583333333333
98,2013-07-28,39.239583333333336,,39.239583333333336
98,2013-07-29,71.56,,71.56
98,2013-07-30,72.67083333333333,,72.67083333333333
98,2013-07-31,58.00375,,58.00375
98,2013-08-01,18.83625,,18.83625
98,2013-08-02,78.51708333333333,,78.51708333333333
98,2013-08-03,40.40083333333333,,40.40083333333333
98,2013-08-04,80.10666666666667,,80.10666666666667
98,2013-08-05,84.14041666666667,,84.14041666666667
98,2013-08-06,68.66,,68.66
98,2013-08-07,48.69291666666667,,48.69291666666667
98,2013-08-08,33.06,,33.06
98,2013-08-09,36.709583333333335,,36.709583333333335
98,2013-08-10,61.49583333333334,,61.49583333333334
98,2013-08-11,67.08333333333333,,67.08333333333333
98,2013-08-12,33.610416666666666,,33.610416666666666
98,2013-08-13,26.72,,26.72
98,2013-08-14,79.5275,,79.5275
98,2013-08-15,79.41666666666667,,79.41666666666667
98,2013-08-16,64.33083333333333,,64.33083333333333
98,2013-08-17,65.67333333333333,,65.67333333333333
98,2013-08-18,33.083333333333336,,33.083333333333336
98,2013-08-19,44.27375,,44.27375
98,2013-08-20,62.36708333333333,,62.36708333333333
98,2013-08-21,66.01041666666667,,66.01041666666667
98,2013-08-22,28.63416666666667,,28.63416666666667
98,2013-08-23,62.39333333333334,,62.39333333333334
98,2013-08-24,79.03,,79.03
98,2013-08-25,75.35666666666667,,75.35666666666667
98,2013-08-26,43.0025,,43.0025
98,2013-08-27,61.74375,,61.74375
98,2013-08-28,34.3725,,34.3725
98,2013-08-29,51.62625,,51.62625
98,2013-08-30,53.92958333333333,,53.92958333333333
98,2013-08-31,47.053333333333335,,47.053333333333335
98,2013-09-01,41.29541666666667,,41.29541666666667
98,2013-09-02,24.643333333333334,,24.643333333333334
98,2013-09-03,45.11333333333334,,45.11333333333334
98,2013-09-04,73.0,,73.0
98,2013-09-05,64.86708333333333,,64.86708333333333
98,2013-09-06,72.56625,,72.56625
98,2013-09-07,67.56625,,67.56625
98,2013-09-08,64.26541666666667,,64.26541666666667
98,2013-09-09,63.60666666666666,,63.60666666666666
98,2013-09-10,41.80583333333333,,41.80583333333333
98,2013-09-11,58.55083333333334,,58.55083333333334
98,2013-09-12,42.8425,,42.8425
98,2013-09-13,46.89083333333334,,46.89083333333334
98,2013-09-14,57.020833333333336,,57.020833333333336
98,2013-09-15,64.44666666666667,,64.44666666666667
98,2013-09-16,27.979166666666668,,27.979166666666668
98,2013-09-17,70.66,,70.66
98,2013-09-18,66.54708333333333,,66.54708333333333
98,2013-09-19,64.90125,,64.90125
98,2013-09-20,63.26541666666666,,63.26541666666666
98,2013-09-21,43.223749999999995,,43.223749999999995
98,2013-09-22,63.4725,,63.4725
98,2013-09-23,67.91916666666667,,67.91916666666667
98,2013-09-24,65.21625,,65.21625
98,2013-09-25,58.10541666666666,,58.10541666666666
98,2013-09-26,42.48416666666667,,42.48416666666667
98,2013-09-27,44.29958333333334,,44.29958333333334
98,2013-09-28,60.895833333333336,,60.895833333333336
98,2013-09-29,50.92333333333334,,50.92333333333334
98,2013-09-30,57.213750000000005,,57.213750000000005
98,2013-10-01,56.46333333333333,,56.46333333333333
98,2013-10-02,55.32041666666667,,55.32041666666667
98,2013-10-03,44.13041666666667,,44.13041666666667
98,2013-10-04,48.01958333333334,,48.01958333333334
98,2013-10-05,32.60041666666667,,32.60041666666667
98,2013-10-06,6.680833333333333,,6.680833333333333
98,2013-10-07,19.333333333333332,,19.333333333333332
98,2013-10-08,49.86333333333334,,49.86333333333334
98,2013-10-09,34.63666666666666,,34.63666666666666
98,2013-10-10,13.512916666666667,,13.512916666666667
98,2013-10-11,12.532499999999999,,12.532499999999999
98,2013-10-12,46.39083333333334,,46.39083333333334
98,2013-10-13,46.32958333333334,,46.32958333333334
98,2013-10-14,45.803333333333335,,45.803333333333335
98,2013-10-15,49.01333333333333,,49.01333333333333
98,2013-10-16,22.9075,,22.9075
98,2013-10-17,24.850416666666664,,24.850416666666664
98,2013-10-18,50.104166666666664,,50.104166666666664
98,2013-10-19,24.912916666666664,,24.912916666666664
98,2013-10-20,50.64958333333333,,50.64958333333333
98,2013-10-21,47.239583333333336,,47.239583333333336
98,2013-10-22,33.709583333333335,,33.709583333333335
98,2013-10-23,18.55333333333333,,18.55333333333333
98,2013-10-24,40.889583333333334,,40.889583333333334
98,2013-10-25,34.67333333333333,,34.67333333333333
98,2013-10-26,46.397083333333335,,46.397083333333335
98,2013-10-27,45.71625,,45.71625
98,2013-10-28,43.23333333333333,,43.23333333333333
98,2013-10-29,41.989583333333336,,41.989583333333336
98,2013-10-30,17.699583333333333,,17.699583333333333
98,2013-10-31,11.27625,,11.27625
98,2013-11-01,13.84375,,13.84375
98,2013-11-02,32.67333333333333,,32.67333333333333
98,2013-11-03,33.38291666666667,,33.38291666666667
98,2013-11-04,44.76291666666666,,44.76291666666666
98,2013-11-05,28.19666666666667,,28.19666666666667
98,2013-11-06,32.57958333333333,,32.57958333333333
98,2013-11-07,5.550416666666667,,5.550416666666667
98,2013-11-08,30.80333333333333,,30.80333333333333
98,2013-11-09,23.534166666666668,,23.534166666666668
98,2013-11-10,28.6925,,28.6925
98,2013-11-11,29.99625,,29.99625
98,2013-11-12,10.258750000000001,,10.258750000000001
98,2013-11-13,40.48291666666667,,40.48291666666667
98,2013-11-14,38.78375,,38.78375
98,2013-11-15,26.110833333333332,,26.110833333333332
98,2013-11-16,31.957083333333333,,31.957083333333333
98,2013-11-17,7.06,,7.06
98,2013-11-18,33.32041666666667,,33.32041666666667
98,2013-11-19,35.84375,,35.84375
98,2013-11-20,34.06125,,34.06125
98,2013-11-21,30.927083333333332,,30.927083333333332
98,2013-11-22,8.690416666666666,,8.690416666666666
98,2013-11-23,30.822916666666668,,30.822916666666668
98,2013-11-24,33.839999999999996,,33.839999999999996
98,2013-11-25,34.15333333333333,,34.15333333333333
98,2013-11-26,8.925833333333333,,8.925833333333333
98,2013-11-27,3.3941666666666666,,3.3941666666666666
98,2013-11-28,34.4375,,34.4375
98,2013-11-29,28.993333333333336,,28.993333333333336
98,2013-11-30,28.106666666666666,,28.106666666666666
98,2013-12-01,24.170416666666668,,24.170416666666668
98,2013-12-02,15.920416666666666,,15.920416666666666
98,2013-12-03,25.59375,,25.59375
98,2013-12-04,19.3825,,19.3825
98,2013-12-05,5.630416666666666,,5.630416666666666
98,2013-12-06,2.8541666666666665,,2.8541666666666665
98,2013-12-07,26.890833333333333,,26.890833333333333
98,2013-12-08,6.4870833333333335,,6.4870833333333335
98,2013-12-09,5.203333333333333,,5.203333333333333
98,2013-12-10,0.09291666666666666,,0.09291666666666666
98,2013-12-11,3.1929166666666666,,3.1929166666666666
98,2013-12-12,5.457083333333333,,5.457083333333333
98,2013-12-13,16.0,,16.0
98,2013-12-14,3.7308333333333334,,3.7308333333333334
98,2013-12-15,17.99083333333333,,17.99083333333333
98,2013-12-16,27.62,,27.62
98,2013-12-17,0.07666666666666667,,0.07666666666666667
98,2013-12-18,5.6275,,5.6275
98,2013-12-19,25.28,,25.28
98,2013-12-20,20.3125,,20.3125
98,2013-12-21,21.732916666666668,,21.732916666666668
98,2013-12-22,9.137083333333333,,9.137083333333333
98,2013-12-23,2.2095833333333332,,2.2095833333333332
98,2013-12-24,25.72,,25.72
98,2013-12-25,26.700833333333335,,26.700833333333335
98,2013-12-26,14.110833333333334,,14.110833333333334
98,2013-12-27,22.230416666666667,,22.230416666666667
98,2013-12-28,22.986666666666665,,22.986666666666665
98,2013-12-29,2.6824999999999997,,2.6824999999999997
98,2013-12-30,8.912916666666666,,8.912916666666666
98,2013-12-31,19.237083333333334,,19.237083333333334
98,2014-01-01,17.12375,,17.12375
98,2014-01-02,1.4491666666666667,,1.4491666666666667
98,2014-01-03,27.372083333333332,,27.372083333333332
98,2014-01-04,32.270833333333336,,32.270833333333336
98,2014-01-05,4.8525,,4.8525
98,2014-01-06,5.87,,5.87
98,2014-01-07,34.01708333333333,,34.01708333333333
98,2014-01-08,31.296666666666667,,31.296666666666667
98,2014-01-09,32.43625,,32.43625
98,2014-01-10,5.3933333333333335,,5.3933333333333335
98,2014-01-11,3.7737499999999997,,3.7737499999999997
98,2014-01-12,16.546666666666667,,16.546666666666667
98,2014-01-13,26.34,,26.34
98,2014-01-14,2.3970833333333332,,2.3970833333333332
98,2014-01-15,24.899583333333336,,24.899583333333336
98,2014-01-16,9.59375,,9.59375
98,2014-01-17,30.970416666666665,,30.970416666666665
98,2014-01-18,8.09375,,8.09375
98,2014-01-19,24.292916666666667,,24.292916666666667
98,2014-01-20,13.87,,13.87
98,2014-01-21,4.12,,4.12
98,2014-01-22,40.04958333333334,,40.04958333333334
98,2014-01-23,38.77708333333333,,38.77708333333333
98,2014-01-24,40.200833333333335,,40.200833333333335
98,2014-01-25,14.577083333333334,,14.577083333333334
98,2014-01-26,28.589583333333334,,28.589583333333334
98,2014-01-27,22.487083333333334,,22.487083333333334
98,2014-01-28,30.416666666666668,,30.416666666666668
98,2014-01-29,10.986666666666666,,10.986666666666666
98,2014-01-30,40.78625,,40.78625
98,2014-01-31,20.140833333333333,,20.140833333333333
98,2014-02-01,29.28,,29.28